Weather History for Lucknow, India

Change the Weather History Date:

Monday, February 18, 2013

  Actual Average Record
Temperature  
Mean Temperature 62 °F -  
Max Temperature 74 °F 82 °F 89 °F (2006)
Min Temperature 49 °F 58 °F 45 °F (2014)
Degree Days  
Heating Degree Days 4    
Growing Degree Days 12 (Base 50)    
Moisture  
Dew Point 54 °F    
Average Humidity 70    
Maximum Humidity 94    
Minimum Humidity 38    
Precipitation  
Precipitation 0.00 in - - ()
Sea Level Pressure  
Sea Level Pressure 29.94 in    
Wind  
Wind Speed 3 mph ()    
Max Wind Speed 9 mph    
Max Gust Speed -    
Visibility 2.6 miles    
Events      
Averages and records for this station are not official NWS values.
T = Trace of Precipitation, MM = Missing Value Source: Averaged Metar Reports

Daily Weather History Graph

Daily Weather History Graph

Search for Another Location

Airport:

Trip Planner

Search our weather history database for the weather conditions in past years. The results will help you decide how hot, cold, wet, or windy it might be!

Date:

Astronomy

Feb. 18, 2013 Rise Set
Actual Time 6:40 AM IST 6:00 PM IST
Civil Twilight 6:16 AM IST 6:24 PM IST
Nautical Twilight 5:49 AM IST 6:51 PM IST
Astronomical Twilight 5:22 AM IST 7:18 PM IST
Moon 11:40 AM IST (2/18) 12:40 AM IST (2/18)
Length of Visible Light 12h 07m
Length of Day
11h 20m
First Quarter, 54% of the Moon is Illuminated
Feb 18
First Quarter
Feb 26
Full
Mar 5
Last Quarter
Mar 12
New
Mar 19
First Quarter

Hourly Weather History & Observations

Time (IST) Temp. Dew Point Humidity Pressure Visibility Wind Dir Wind Speed Gust Speed Precip Events Conditions
1:00 AM 57.2 °F 55.4 °F 94% 29.92 in 1.6 mi NNW 2.3 mph - N/A   Mist
2:00 AM 57.2 °F 53.6 °F 88% 29.92 in 1.6 mi Calm Calm - N/A   Mist
3:00 AM 55.4 °F 53.6 °F 94% 29.89 in 1.6 mi Calm Calm - N/A   Mist
4:00 AM 55.4 °F 53.6 °F 94% 29.89 in 1.6 mi Calm Calm - N/A   Mist
5:00 AM 53.6 °F 51.8 °F 94% 29.89 in 1.6 mi Calm Calm - N/A   Mist
5:30 AM 53.6 °F 51.8 °F 94% 29.92 in 1.2 mi Calm Calm - N/A   Mist
7:30 AM 53.6 °F 51.8 °F 94% 29.95 in 0.9 mi SSW 3.5 mph - N/A   Mist
8:00 AM 55.4 °F 51.8 °F 88% 29.98 in 0.9 mi Variable 2.3 mph - N/A   Mist
8:30 AM 57 °F 54 °F 86% 30.01 in 1 mi West 4.6 mph - -   Mist
9:00 AM 60.8 °F 55.4 °F 82% 29.98 in 1.6 mi West 3.5 mph - N/A   Mist
9:30 AM 62.6 °F 57.2 °F 82% 30.01 in 1.6 mi WSW 3.5 mph - N/A   Mist
10:30 AM 66.2 °F 55.4 °F 68% 30.01 in 2.5 mi WNW 3.5 mph - N/A   Haze
11:30 AM 69 °F 53 °F 47% 30.00 in 2 mi WNW 6.9 mph - -   Partly Cloudy
11:30 AM 68.0 °F 53.6 °F 60% 29.98 in 3.7 mi WNW 6.9 mph - N/A   Scattered Clouds
12:00 PM 69.8 °F 53.6 °F 56% 29.98 in 3.7 mi WNW 6.9 mph - N/A   Scattered Clouds
12:30 PM 69.8 °F 53.6 °F 56% 29.98 in 3.7 mi WNW 5.8 mph - N/A   Scattered Clouds
1:00 PM 71.6 °F 51.8 °F 50% 29.95 in 3.7 mi WSW 6.9 mph - N/A   Scattered Clouds
1:30 PM 71.6 °F 51.8 °F 50% 29.92 in 3.7 mi SW 9.2 mph - N/A   Scattered Clouds
2:00 PM 71.6 °F 51.8 °F 50% 29.92 in 3.7 mi West 9.2 mph - N/A   Scattered Clouds
2:30 PM 74 °F 53 °F 38% 29.92 in 2 mi WNW 8.1 mph - -   Mostly Cloudy
2:30 PM 73.4 °F 53.6 °F 50% 29.92 in 3.7 mi WNW 8.1 mph - N/A   Scattered Clouds
3:00 PM 73.4 °F 53.6 °F 50% 29.92 in 3.7 mi WNW 6.9 mph - N/A   Scattered Clouds
3:30 PM 73.4 °F 53.6 °F 50% 29.92 in 3.7 mi West 6.9 mph - N/A   Scattered Clouds
4:00 PM 71.6 °F 51.8 °F 50% 29.92 in 3.7 mi West 6.9 mph - N/A   Scattered Clouds
4:30 PM 71.6 °F 51.8 °F 50% 29.89 in 3.7 mi WNW 5.8 mph - N/A   Partly Cloudy
5:30 PM 69.8 °F 55.4 °F 60% 29.92 in 3.7 mi WNW 3.5 mph - N/A   Scattered Clouds
6:30 PM 68.0 °F 55.4 °F 64% 29.92 in 3.1 mi Variable 2.3 mph - N/A   Haze
7:00 PM 64.4 °F 55.4 °F 73% 29.92 in 3.1 mi Calm Calm - N/A   Haze
7:30 PM 64.4 °F 55.4 °F 73% 29.95 in 3.1 mi West 4.6 mph - N/A   Haze
8:00 PM 62.6 °F 55.4 °F 77% 29.95 in 3.1 mi West 3.5 mph - N/A   Haze
8:30 PM 62.6 °F 55.4 °F 77% 29.95 in 3.1 mi West 4.6 mph - N/A   Haze
9:00 PM 60.8 °F 55.4 °F 82% 29.95 in 2.5 mi Variable 2.3 mph - N/A   Haze
10:00 PM 60.8 °F 55.4 °F 82% 29.98 in 1.9 mi NW 3.5 mph - N/A   Mist
11:00 PM 60.8 °F 55.4 °F 82% 29.98 in 1.9 mi West 4.6 mph - N/A   Mist